Location: Borz?cin
(51.1714°N, 19.6030°E)
Time: 08:33:15
(UTC+00:00)

Cosmos 1980 Rocket - Pass Details

Date: 19 May 2025
Orbit: 829 x 847 km, 71.0° (Epoch: 16 June)

Event Time Altitude Azimuth Distance (km) Brightness Sun altitude
Rises 19:01:49 0° 331° (NNW) 3,384 6.9 -4.6°
Reaches altitude 10° 19:04:33 10° 342° (NNW) 2,447 5.7 -4.9°
Maximum altitude 19:09:31 31° 44° (NE) 1,420 3.4 -5.5°
Drops below altitude 10° 19:14:27 10° 107° (ESE) 2,441 4.1 -6.1°
Enters shadow 19:15:39 - 112° (ESE) 2,841 4.3 -6.2°
